Location: Unspecified
(0.0000°N, 0.0000°E)
Time: 09:48:16
(UTC+00:00)

TRS 6 - Pass Details

Date: 24 February 2019
Orbit: 3561 x 3726 km, 87.3° (Epoch: 22 October)

Event Time Altitude Azimuth Distance (km) Brightness Sun altitude
Rises 21:03:43 0° 203° (SSW) 7,718 ? -41.9°
Reaches altitude 10° 21:09:11 10° 213° (SSW) 6,705 ? -43.3°
Maximum altitude 21:23:53 29° 266° (W) 5,299 ? -46.9°
Drops below altitude 10° 21:39:07 10° 320° (NW) 6,790 ? -50.5°
Sets 21:45:02 0° 332° (NNW) 7,830 ? -52.0°
